UAL5731 KSBP-KLAX

Flight info

Callsign UAL5731
Flight time N/A
Altitude 21000
Route CREPE3 CREPE RZS RYDRR RYDRR2
Aircraft E75L/M-SDE3GILORVW/S

Departure

Time 2026-04-22 00:16
Airport San Luis County Regional Airport (KSBP)

Arrival

Time N/A
Airport Los Angeles International Airport (KLAX)
Time Latitude Longitude Altitude Speed Heading
2026-04-21 23:40 35.23780 -120.63849 200 ft 0 kts 157°
2026-04-22 00:11 35.23777 -120.63848 200 ft 1 kts 161°
2026-04-22 00:12 35.23758 -120.63848 208 ft 4 kts 188°
2026-04-22 00:12 35.23721 -120.63860 203 ft 7 kts 182°
2026-04-22 00:12 35.23685 -120.63825 202 ft 1 kts 124°
2026-04-22 00:12 35.23685 -120.63824 202 ft 0 kts 124°
2026-04-22 00:13 35.23680 -120.63815 203 ft 3 kts 124°
2026-04-22 00:14 35.23657 -120.63776 204 ft 9 kts 125°
2026-04-22 00:14 35.23608 -120.63690 206 ft 15 kts 125°
2026-04-22 00:14 35.23541 -120.63572 210 ft 19 kts 125°
2026-04-22 00:14 35.23467 -120.63444 214 ft 11 kts 124°
2026-04-22 00:15 35.23423 -120.63399 218 ft 0 kts 187°
2026-04-22 00:15 35.23401 -120.63410 215 ft 7 kts 212°
2026-04-22 00:15 35.23397 -120.63504 214 ft 29 kts 295°
2026-04-22 00:15 35.23675 -120.64008 200 ft 113 kts 306°
2026-04-22 00:16 35.24265 -120.65045 333 ft 171 kts 304°
2026-04-22 00:16 35.25042 -120.66194 1337 ft 191 kts 309°
2026-04-22 00:16 35.26119 -120.67589 1402 ft 268 kts 312°
2026-04-22 00:16 35.27562 -120.69258 2649 ft 279 kts 315°
2026-04-22 00:17 35.28815 -120.70582 5885 ft 198 kts 316°
2026-04-22 00:17 35.29850 -120.71604 7705 ft 203 kts 316°
2026-04-22 00:17 35.31193 -120.72890 6683 ft 300 kts 319°
2026-04-22 00:17 35.32988 -120.74856 6235 ft 351 kts 303°
2026-04-22 00:18 35.34061 -120.77052 9636 ft 245 kts 302°
2026-04-22 00:18 35.34871 -120.78503 12849 ft 188 kts 291°
2026-04-22 00:18 35.35426 -120.80139 12720 ft 241 kts 288°
2026-04-22 00:18 35.36164 -120.82457 11008 ft 345 kts 279°
2026-04-22 00:19 35.35626 -120.85268 11510 ft 353 kts 226°
2026-04-22 00:19 35.33469 -120.86397 13825 ft 318 kts 202°
2026-04-22 00:19 35.31131 -120.86561 13943 ft 373 kts 186°
2026-04-22 00:19 35.28458 -120.85830 14443 ft 393 kts 159°
2026-04-22 00:20 35.26349 -120.83951 16898 ft 376 kts 152°
2026-04-22 00:20 35.24133 -120.81927 16586 ft 417 kts 152°
2026-04-22 00:20 35.21980 -120.79782 18758 ft 380 kts 150°
2026-04-22 00:20 35.20050 -120.77555 19478 ft 404 kts 143°
2026-04-22 00:21 35.18157 -120.74791 19741 ft 427 kts 137°
2026-04-22 00:21 35.16403 -120.71906 21020 ft 420 kts 135°
2026-04-22 00:21 35.14669 -120.68952 21375 ft 439 kts 134°
2026-04-22 00:21 35.12861 -120.65827 21642 ft 458 kts 132°
2026-04-22 00:22 35.11189 -120.62525 22831 ft 454 kts 125°
2026-04-22 00:22 35.09778 -120.59110 23671 ft 460 kts 124°
2026-04-22 00:22 35.08268 -120.55548 23628 ft 483 kts 125°
2026-04-22 00:22 35.06608 -120.51936 24120 ft 488 kts 127°
2026-04-22 00:23 35.04893 -120.48348 24610 ft 494 kts 128°
2026-04-22 00:23 35.03077 -120.44729 24805 ft 505 kts 129°
2026-04-22 00:23 35.01184 -120.41147 24951 ft 492 kts 131°
2026-04-22 00:23 34.99317 -120.37676 24285 ft 491 kts 131°
2026-04-22 00:24 34.97374 -120.34217 23571 ft 492 kts 133°
2026-04-22 00:24 34.95457 -120.30797 23179 ft 482 kts 131°
2026-04-22 00:24 34.93526 -120.27557 22721 ft 472 kts 135°
2026-04-22 00:24 34.91516 -120.24432 22499 ft 461 kts 137°
2026-04-22 00:25 34.89521 -120.21411 22029 ft 455 kts 138°
2026-04-22 00:25 34.87483 -120.18468 21471 ft 453 kts 139°
2026-04-22 00:25 34.85443 -120.15588 21231 ft 444 kts 140°
2026-04-22 00:25 34.83386 -120.12797 20800 ft 439 kts 142°
2026-04-22 00:26 34.81150 -120.10347 20479 ft 419 kts 156°
2026-04-22 00:26 34.78781 -120.08512 20562 ft 401 kts 159°
2026-04-22 00:26 34.76421 -120.06775 20394 ft 393 kts 160°
2026-04-22 00:26 34.74116 -120.04937 20196 ft 396 kts 154°
2026-04-22 00:27 34.72008 -120.02845 20423 ft 384 kts 150°
2026-04-22 00:27 34.70076 -120.00608 20390 ft 383 kts 145°
2026-04-22 00:27 34.68307 -119.98172 20478 ft 379 kts 140°
2026-04-22 00:27 34.66669 -119.95719 20577 ft 369 kts 140°
2026-04-22 00:28 34.65128 -119.93311 20888 ft 366 kts 136°
2026-04-22 00:28 34.63594 -119.90710 21057 ft 392 kts 135°
2026-04-22 00:28 34.61925 -119.87951 21241 ft 414 kts 136°
2026-04-22 00:28 34.60136 -119.85112 21294 ft 430 kts 137°
2026-04-22 00:29 34.58236 -119.82286 21414 ft 441 kts 137°
2026-04-22 00:29 34.56230 -119.79413 21494 ft 450 kts 139°
2026-04-22 00:29 34.54169 -119.76498 21686 ft 459 kts 138°
2026-04-22 00:29 34.52088 -119.73556 21531 ft 473 kts 139°
2026-04-22 00:30 34.49882 -119.70511 21468 ft 487 kts 136°
2026-04-22 00:30 34.47874 -119.67125 21341 ft 497 kts 131°
2026-04-22 00:30 34.45990 -119.63599 21132 ft 493 kts 127°
2026-04-22 00:30 34.44148 -119.60172 21171 ft 480 kts 132°
2026-04-22 00:31 34.42246 -119.56887 20963 ft 477 kts 132°
2026-04-22 00:31 34.40382 -119.53585 21042 ft 472 kts 129°
2026-04-22 00:31 34.38771 -119.50127 21056 ft 469 kts 125°
2026-04-22 00:31 34.37205 -119.46659 20839 ft 469 kts 125°
2026-04-22 00:32 34.35652 -119.43227 20642 ft 470 kts 126°
2026-04-22 00:32 34.34065 -119.39812 20821 ft 461 kts 125°
2026-04-22 00:32 34.32584 -119.36411 20949 ft 455 kts 124°
2026-04-22 00:32 34.31093 -119.33020 20800 ft 455 kts 125°
2026-04-22 00:33 34.29571 -119.29703 20928 ft 448 kts 126°
2026-04-22 00:33 34.28048 -119.26409 20791 ft 448 kts 127°
2026-04-22 00:33 34.26990 -119.24266 20614 ft 451 kts 128°
2026-04-22 00:33 34.25451 -119.20999 20889 ft 442 kts 126°
2026-04-22 00:34 34.23570 -119.16610 20000 ft 447 kts 123°
2026-04-22 00:34 34.22195 -119.13168 18948 ft 459 kts 121°
2026-04-22 00:34 34.21323 -119.10815 18898 ft 447 kts 119°
2026-04-22 00:34 34.19786 -119.06336 18395 ft 435 kts 119°
2026-04-22 00:35 34.19012 -119.04034 17775 ft 440 kts 117°
2026-04-22 00:35 34.18010 -119.00571 17428 ft 430 kts 116°
2026-04-22 00:35 34.16801 -118.97369 17061 ft 411 kts 127°
2026-04-22 00:35 34.15507 -118.94313 16365 ft 415 kts 122°
2026-04-22 00:36 34.14261 -118.91130 15445 ft 421 kts 121°
2026-04-22 00:36 34.12914 -118.87989 14702 ft 419 kts 126°
2026-04-22 00:36 34.11473 -118.84992 14500 ft 405 kts 124°
2026-04-22 00:36 34.10349 -118.81913 14115 ft 400 kts 117°
2026-04-22 00:37 34.09198 -118.78841 13221 ft 403 kts 122°
2026-04-22 00:37 34.07927 -118.75820 12453 ft 405 kts 121°
2026-04-22 00:37 34.06815 -118.72689 11803 ft 407 kts 114°
2026-04-22 00:37 34.05854 -118.69483 10726 ft 407 kts 116°
2026-04-22 00:38 34.04880 -118.66284 9192 ft 404 kts 110°
2026-04-22 00:38 34.04147 -118.63199 9954 ft 349 kts 110°
2026-04-22 00:38 34.03540 -118.60465 9892 ft 344 kts 107°
2026-04-22 00:38 34.03195 -118.57453 8301 ft 380 kts 97°
2026-04-22 00:39 34.03307 -118.54243 7003 ft 382 kts 85°
2026-04-22 00:39 34.03726 -118.51109 5101 ft 375 kts 78°
2026-04-22 00:39 34.04200 -118.48073 4004 ft 360 kts 83°
2026-04-22 00:39 34.04427 -118.45146 3279 ft 350 kts 86°
2026-04-22 00:40 34.04597 -118.42225 2649 ft 343 kts 86°
2026-04-22 00:40 34.04746 -118.39431 2422 ft 326 kts 88°
2026-04-22 00:40 34.04884 -118.36754 2155 ft 315 kts 88°
2026-04-22 00:40 34.04895 -118.34163 2259 ft 298 kts 100°
2026-04-22 00:41 34.03997 -118.32082 2579 ft 270 kts 143°
2026-04-22 00:41 34.02335 -118.31424 2669 ft 248 kts 191°
2026-04-22 00:41 34.00852 -118.32293 2579 ft 240 kts 224°
2026-04-22 00:41 33.99608 -118.33645 2334 ft 246 kts 221°
2026-04-22 00:42 33.98293 -118.34958 2129 ft 234 kts 231°
2026-04-22 00:42 33.97588 -118.36333 3142 ft 160 kts 249°
2026-04-22 00:42 33.97649 -118.37594 3751 ft 175 kts 299°
2026-04-22 00:42 33.98859 -118.38470 3375 ft 241 kts 352°
2026-04-22 00:43 34.00454 -118.38036 3938 ft 246 kts 22°
2026-04-22 00:43 34.01843 -118.36705 3961 ft 268 kts 50°
2026-04-22 00:43 34.02845 -118.34844 3602 ft 255 kts 63°
2026-04-22 00:43 34.03192 -118.32746 2949 ft 245 kts 92°
2026-04-22 00:44 34.03249 -118.30811 2845 ft 223 kts 85°
2026-04-22 00:44 34.03418 -118.29046 2901 ft 205 kts 84°
2026-04-22 00:44 34.03662 -118.27367 2827 ft 198 kts 82°
2026-04-22 00:44 34.03879 -118.25763 2826 ft 192 kts 84°
2026-04-22 00:45 34.04063 -118.24210 2940 ft 182 kts 87°
2026-04-22 00:45 34.04220 -118.22699 2920 ft 182 kts 83°
2026-04-22 00:45 34.04459 -118.21207 2906 ft 180 kts 80°